^^
Station Historical Data
Daily Summary for June 15, 2017 Units:  English    Metric   Both
« Previous Day
Next Day »
Daily Weekly Monthly Yearly Custom
  High: Low: Average:
Temperature: 79.6 °F 66.9 °F 72.7 °F
Dew Point: 59.2 °F 43.2 °F 54.6 °F
Humidity: 68 % 38 % 54 %
Wind Speed: 5.1 mph 0.0 mph 0.4 mph
Wind Gust: 16.1 mph - -
Wind:- - South
Pressure: 30.04 in 29.93 in -
Precipitation: 0.00 in    
Historical Graphs
 
 
Tabular Data for June 15, 2017
Time Temperature Dew Point Pressure Wind Wind Speed Wind Gust Humidity Rainfall Rate (Hourly) solar Conditions
00:00 72.2 °F 58.9 °F 30.00 in SSW 0.1 mph 4.6 mph 63 % 0.00 in 0.0 W/m2 BKN
00:05 72.0 °F 59.2 °F 30.00 in Calm   3.5 mph 64 % 0.00 in 0.0 W/m2 CLR
00:10 71.9 °F 59.1 °F 30.00 in Calm   2.3 mph 64 % 0.00 in 0.0 W/m2 CLR
00:15 71.8 °F 59.0 °F 30.00 in SSW 0.9 mph 3.5 mph 64 % 0.00 in 0.0 W/m2 CLR
00:20 71.6 °F 59.2 °F 30.01 in Calm   3.5 mph 65 % 0.00 in 0.0 W/m2 CLR
00:25 71.4 °F 59.0 °F 30.00 in Calm   3.5 mph 65 % 0.00 in 0.0 W/m2 CLR
00:30 71.1 °F 58.7 °F 30.01 in Calm     65 % 0.00 in 0.0 W/m2 CLR
00:35 70.9 °F 58.5 °F 30.01 in Calm   1.2 mph 65 % 0.00 in 0.0 W/m2 CLR
00:40 71.0 °F 58.6 °F 30.00 in Calm   1.2 mph 65 % 0.00 in 0.0 W/m2 CLR
00:45 71.3 °F 58.1 °F 30.00 in Calm   1.2 mph 63 % 0.00 in 0.0 W/m2 CLR
00:50 71.3 °F 58.1 °F 30.01 in Calm     63 % 0.00 in 0.0 W/m2 CLR
00:55 71.2 °F 58.4 °F 30.00 in Calm     64 % 0.00 in 0.0 W/m2 CLR
01:00 71.2 °F 58.0 °F 30.01 in Calm     63 % 0.00 in 0.0 W/m2 CLR
01:05 71.3 °F 58.1 °F 30.01 in Calm     63 % 0.00 in 0.0 W/m2 BKN
01:10 71.3 °F 57.6 °F 30.01 in Calm     62 % 0.00 in 0.0 W/m2 BKN
01:16 71.2 °F 58.0 °F 30.01 in Calm     63 % 0.00 in 0.0 W/m2 BKN
01:21 70.9 °F 58.1 °F 30.00 in Calm     64 % 0.00 in 0.0 W/m2 BKN
01:26 70.9 °F 58.1 °F 30.00 in Calm     64 % 0.00 in 0.0 W/m2 BKN
01:31 70.5 °F 57.7 °F 30.00 in Calm     64 % 0.00 in 0.0 W/m2 BKN
01:36 70.7 °F 57.9 °F 30.00 in Calm     64 % 0.00 in 0.0 W/m2 BKN
01:41 70.8 °F 58.0 °F 30.00 in Calm     64 % 0.00 in 0.0 W/m2 BKN
01:46 70.7 °F 57.9 °F 30.00 in Calm     64 % 0.00 in 0.0 W/m2 BKN
01:51 70.6 °F 58.3 °F 30.00 in Calm     65 % 0.00 in 0.0 W/m2 BKN
01:56 70.7 °F 57.5 °F 30.00 in Calm   1.2 mph 63 % 0.00 in 0.0 W/m2 BKN
02:01 70.6 °F 57.8 °F 30.00 in Calm   1.2 mph 64 % 0.00 in 0.0 W/m2 OVC
02:06 70.3 °F 58.0 °F 30.00 in Calm     65 % 0.00 in 0.0 W/m2 OVC
02:11 70.2 °F 57.9 °F 30.00 in Calm     65 % 0.00 in 0.0 W/m2 OVC
02:16 70.3 °F 58.0 °F 30.00 in Calm     65 % 0.00 in 0.0 W/m2 OVC
02:21 70.1 °F 57.8 °F 29.99 in Calm     65 % 0.00 in 0.0 W/m2 OVC
02:26 70.2 °F 57.9 °F 29.99 in Calm     65 % 0.00 in 0.0 W/m2 OVC
02:31 70.0 °F 57.7 °F 29.99 in Calm     65 % 0.00 in 0.0 W/m2 OVC
02:36 69.8 °F 57.5 °F 30.00 in Calm     65 % 0.00 in 0.0 W/m2 OVC
02:41 69.9 °F 56.7 °F 30.00 in Calm     63 % 0.00 in 0.0 W/m2 OVC
02:46 70.0 °F 55.9 °F 29.99 in Calm     61 % 0.00 in 0.0 W/m2 OVC
02:51 70.2 °F 55.7 °F 30.00 in Calm     60 % 0.00 in 0.0 W/m2 OVC
02:56 70.2 °F 56.1 °F 29.99 in Calm     61 % 0.00 in 0.0 W/m2 OVC
03:01 69.9 °F 56.3 °F 29.99 in Calm     62 % 0.00 in 0.0 W/m2 BKN
03:06 69.5 °F 56.8 °F 29.99 in Calm     64 % 0.00 in 0.0 W/m2 BKN
03:11 69.3 °F 56.6 °F 29.99 in Calm     64 % 0.00 in 0.0 W/m2 BKN
03:22 68.6 °F 56.4 °F 29.99 in Calm     65 % 0.00 in 0.0 W/m2 BKN
03:27 68.4 °F 55.7 °F 29.99 in Calm   1.2 mph 64 % 0.00 in 0.0 W/m2 BKN
03:32 68.4 °F 55.7 °F 29.99 in Calm   1.2 mph 64 % 0.00 in 0.0 W/m2 BKN
03:37 68.5 °F 55.8 °F 29.99 in Calm     64 % 0.00 in 0.0 W/m2 BKN
03:42 68.3 °F 55.6 °F 29.99 in Calm     64 % 0.00 in 0.0 W/m2 BKN
03:47 68.2 °F 55.1 °F 29.99 in Calm     63 % 0.00 in 0.0 W/m2 BKN
03:52 68.1 °F 55.0 °F 29.99 in Calm     63 % 0.00 in 0.0 W/m2 BKN
03:57 68.3 °F 55.6 °F 29.99 in Calm     64 % 0.00 in 0.0 W/m2 BKN
04:02 68.2 °F 55.6 °F 29.99 in Calm     64 % 0.00 in 0.0 W/m2 OVC
04:07 68.2 °F 55.6 °F 29.99 in Calm     64 % 0.00 in 0.0 W/m2 OVC
04:12 68.2 °F 55.1 °F 29.99 in Calm     63 % 0.00 in 0.0 W/m2 OVC
04:17 68.3 °F 55.2 °F 29.99 in Calm     63 % 0.00 in 0.0 W/m2 OVC
04:22 68.3 °F 55.6 °F 29.99 in Calm     64 % 0.00 in 0.0 W/m2 OVC
04:27 68.1 °F 55.5 °F 29.99 in Calm     64 % 0.00 in 0.0 W/m2 OVC
04:32 68.1 °F 55.0 °F 29.99 in Calm     63 % 0.00 in 0.0 W/m2 OVC
04:37 68.0 °F 55.4 °F 29.99 in Calm     64 % 0.00 in 0.0 W/m2 OVC
04:42 67.9 °F 55.3 °F 29.99 in Calm     64 % 0.00 in 0.0 W/m2 OVC
04:47 67.9 °F 55.3 °F 29.99 in Calm     64 % 0.00 in 0.0 W/m2 OVC
04:52 68.1 °F 55.5 °F 29.99 in Calm     64 % 0.00 in 0.0 W/m2 OVC
04:57 68.3 °F 55.2 °F 29.99 in Calm     63 % 0.00 in 0.0 W/m2 OVC
05:02 68.1 °F 55.0 °F 29.99 in Calm     63 % 0.00 in 0.0 W/m2 BKN
05:07 67.9 °F 55.3 °F 29.99 in Calm   1.2 mph 64 % 0.00 in 0.0 W/m2 BKN
05:12 67.7 °F 55.1 °F 29.99 in SSW 0.3 mph 1.2 mph 64 % 0.00 in 0.0 W/m2 BKN
05:17 67.8 °F 55.2 °F 29.99 in Calm   3.5 mph 64 % 0.00 in 0.0 W/m2 BKN
05:22 67.8 °F 55.2 °F 29.99 in Calm   3.5 mph 64 % 0.00 in 0.0 W/m2 BKN
05:27 67.7 °F 55.1 °F 29.99 in Calm   1.2 mph 64 % 0.00 in 0.0 W/m2 BKN
05:32 67.5 °F 54.9 °F 29.99 in Calm   1.2 mph 64 % 0.00 in 5.0 W/m2 BKN
05:37 67.6 °F 55.4 °F 29.99 in Calm     65 % 0.00 in 7.0 W/m2 BKN
05:42 67.6 °F 55.4 °F 30.00 in Calm     65 % 0.00 in 7.0 W/m2 BKN
05:47 67.5 °F 54.9 °F 30.00 in SSW 0.5 mph 1.2 mph 64 % 0.00 in 11.0 W/m2 BKN
05:52 67.4 °F 54.8 °F 30.00 in Calm   2.3 mph 64 % 0.00 in 16.0 W/m2 BKN
05:57 67.3 °F 54.7 °F 30.00 in Calm   2.3 mph 64 % 0.00 in 19.0 W/m2 BKN
06:02 67.3 °F 54.7 °F 30.01 in Calm   2.3 mph 64 % 0.00 in 21.0 W/m2 OVC
06:07 67.5 °F 54.9 °F 30.01 in Calm   1.2 mph 64 % 0.00 in 25.0 W/m2 OVC
06:12 67.5 °F 54.9 °F 30.01 in Calm   1.2 mph 64 % 0.00 in 33.0 W/m2 OVC
06:17 67.4 °F 55.2 °F 30.01 in Calm   1.2 mph 65 % 0.00 in 44.0 W/m2 OVC
06:22 67.3 °F 55.5 °F 30.01 in Calm     66 % 0.00 in 54.0 W/m2 OVC
06:28 67.3 °F 56.0 °F 30.01 in Calm     67 % 0.00 in 70.0 W/m2 OVC
06:33 67.0 °F 55.7 °F 30.01 in Calm   1.2 mph 67 % 0.00 in 84.0 W/m2 OVC
06:38 66.9 °F 55.6 °F 30.01 in Calm   1.2 mph 67 % 0.00 in 88.0 W/m2 OVC
06:43 67.0 °F 56.1 °F 30.01 in Calm     68 % 0.00 in 97.0 W/m2 OVC
06:48 67.0 °F 56.1 °F 30.01 in Calm     68 % 0.00 in 86.0 W/m2 OVC
06:53 67.0 °F 55.7 °F 30.02 in Calm     67 % 0.00 in 67.0 W/m2 OVC
06:58 67.0 °F 55.7 °F 30.02 in Calm     67 % 0.00 in 67.0 W/m2 OVC
06:59 66.9 °F 55.6 °F 30.02 in Calm     67 % 0.00 in 67.0 W/m2 OVC
07:04 66.9 °F 55.6 °F 30.02 in Calm     67 % 0.00 in 81.0 W/m2 OVC
07:09 66.9 °F 55.6 °F 30.02 in Calm     67 % 0.00 in 98.0 W/m2 OVC
07:14 66.9 °F 55.2 °F 30.01 in Calm     66 % 0.00 in 86.0 W/m2 OVC
07:19 67.0 °F 55.3 °F 30.01 in Calm     66 % 0.00 in 97.0 W/m2 OVC
07:24 67.0 °F 54.8 °F 30.01 in Calm   1.2 mph 65 % 0.00 in 105.0 W/m2 OVC
07:29 67.1 °F 55.4 °F 30.01 in Calm   2.3 mph 66 % 0.00 in 114.0 W/m2 OVC
07:34 67.2 °F 55.0 °F 30.01 in Calm   2.3 mph 65 % 0.00 in 132.0 W/m2 OVC
07:39 67.2 °F 55.5 °F 30.01 in Calm   1.2 mph 66 % 0.00 in 123.0 W/m2 OVC
07:44 67.3 °F 55.5 °F 30.01 in Calm   1.2 mph 66 % 0.00 in 123.0 W/m2 OVC
07:49 67.6 °F 55.8 °F 30.01 in Calm     66 % 0.00 in 160.0 W/m2 OVC
07:54 67.5 °F 55.7 °F 30.01 in Calm   3.5 mph 66 % 0.00 in 193.0 W/m2 OVC
07:59 67.8 °F 56.0 °F 30.02 in Calm   3.5 mph 66 % 0.00 in 181.0 W/m2 OVC
08:04 67.8 °F 56.0 °F 30.02 in Calm   2.3 mph 66 % 0.00 in 151.0 W/m2 BKN
08:09 67.7 °F 56.3 °F 30.02 in Calm   2.3 mph 67 % 0.00 in 202.0 W/m2 BKN
08:14 67.8 °F 56.4 °F 30.02 in Calm   1.2 mph 67 % 0.00 in 165.0 W/m2 BKN
08:19 67.9 °F 56.1 °F 30.03 in Calm   1.2 mph 66 % 0.00 in 121.0 W/m2 BKN
08:24 68.3 °F 56.5 °F 30.02 in Calm     66 % 0.00 in 167.0 W/m2 BKN
08:30 68.2 °F 56.4 °F 30.02 in Calm     66 % 0.00 in 199.0 W/m2 BKN
08:35 68.2 °F 56.4 °F 30.03 in Calm   1.0 mph 66 % 0.00 in 230.0 W/m2 BKN
08:40 68.4 °F 56.2 °F 30.03 in Calm   3.5 mph 65 % 0.00 in 171.0 W/m2 BKN
08:45 68.6 °F 56.8 °F 30.03 in Calm   3.5 mph 66 % 0.00 in 162.0 W/m2 BKN
08:50 68.4 °F 56.6 °F 30.03 in Calm     66 % 0.00 in 199.0 W/m2 BKN
08:55 68.6 °F 56.4 °F 30.03 in Calm   1.2 mph 65 % 0.00 in 211.0 W/m2 BKN
09:00 68.9 °F 55.8 °F 30.03 in Calm   1.2 mph 63 % 0.00 in 213.0 W/m2 BKN
09:05 69.0 °F 55.0 °F 30.03 in Calm   1.2 mph 61 % 0.00 in 257.0 W/m2 OVC
09:10 69.6 °F 55.1 °F 30.03 in South 1.0 mph 3.5 mph 60 % 0.00 in 237.0 W/m2 OVC
09:15 70.0 °F 55.0 °F 30.03 in South 0.1 mph 3.5 mph 59 % 0.00 in 292.0 W/m2 OVC
09:20 69.8 °F 54.4 °F 30.03 in Calm   5.8 mph 58 % 0.00 in 418.0 W/m2 OVC
09:25 70.4 °F 55.4 °F 30.03 in Calm   5.8 mph 59 % 0.00 in 413.0 W/m2 OVC
09:30 70.7 °F 55.2 °F 30.03 in Calm   3.5 mph 58 % 0.00 in 299.0 W/m2 OVC
09:35 70.7 °F 54.2 °F 30.04 in South 0.6 mph 4.6 mph 56 % 0.00 in 304.0 W/m2 OVC
09:40 70.5 °F 54.0 °F 30.04 in Calm   4.6 mph 56 % 0.00 in 276.0 W/m2 OVC
09:45 70.6 °F 54.1 °F 30.03 in Calm   3.5 mph 56 % 0.00 in 234.0 W/m2 OVC
09:50 70.6 °F 54.1 °F 30.03 in Calm   2.3 mph 56 % 0.00 in 329.0 W/m2 OVC
09:55 70.9 °F 53.9 °F 30.04 in SE 1.0 mph 3.5 mph 55 % 0.00 in 346.0 W/m2 OVC
10:00 71.0 °F 54.5 °F 30.03 in Calm   3.5 mph 56 % 0.00 in 357.0 W/m2 OVC
10:05 71.9 °F 54.3 °F 30.03 in SSW 3.5 mph 5.8 mph 54 % 0.00 in 717.0 W/m2 OVC
10:10 72.0 °F 53.9 °F 30.03 in SSW 5.1 mph 6.9 mph 53 % 0.00 in 432.0 W/m2 OVC
10:15 71.7 °F 53.1 °F 30.03 in SSW 2.5 mph 6.9 mph 52 % 0.00 in 679.0 W/m2 OVC
10:20 72.6 °F 54.0 °F 30.03 in SSW 2.3 mph 9.2 mph 52 % 0.00 in 705.0 W/m2 OVC
10:25 73.0 °F 53.8 °F 30.03 in SSW 1.6 mph 9.2 mph 51 % 0.00 in 668.0 W/m2 OVC
10:30 73.2 °F 55.0 °F 30.02 in ESE 1.7 mph 5.8 mph 53 % 0.00 in 666.0 W/m2 OVC
10:35 73.5 °F 54.3 °F 30.02 in Calm   5.8 mph 51 % 0.00 in 564.0 W/m2 OVC
10:40 73.9 °F 55.7 °F 30.02 in Calm   5.8 mph 53 % 0.00 in 448.0 W/m2 OVC
10:45 74.0 °F 55.8 °F 30.02 in Calm   5.8 mph 53 % 0.00 in 401.0 W/m2 OVC
10:51 73.7 °F 55.5 °F 30.03 in Calm   5.8 mph 53 % 0.00 in 508.0 W/m2 OVC
10:56 74.3 °F 56.6 °F 30.03 in Calm   3.5 mph 54 % 0.00 in 461.0 W/m2 OVC
11:01 74.4 °F 55.1 °F 30.03 in SSW 0.2 mph 4.6 mph 51 % 0.00 in 308.0 W/m2 BKN
11:06 73.9 °F 55.2 °F 30.03 in SSW 0.2 mph 4.6 mph 52 % 0.00 in 315.0 W/m2 BKN
11:11 74.1 °F 55.9 °F 30.03 in SE 0.6 mph 3.5 mph 53 % 0.00 in 274.0 W/m2 BKN
11:16 74.2 °F 54.9 °F 30.03 in SSW 3.5 mph 4.6 mph 51 % 0.00 in 246.0 W/m2 BKN
11:21 74.1 °F 55.3 °F 30.03 in East 1.5 mph 5.8 mph 52 % 0.00 in 271.0 W/m2 BKN
11:22 74.0 °F 55.3 °F 30.02 in ESE 0.1 mph 5.8 mph 52 % 0.00 in 283.0 W/m2 BKN
11:27 74.0 °F 55.3 °F 30.03 in SSW 0.4 mph 5.8 mph 52 % 0.00 in 279.0 W/m2 BKN
11:32 74.4 °F 55.6 °F 30.02 in SSE 0.3 mph 3.5 mph 52 % 0.00 in 304.0 W/m2 BKN
11:37 74.3 °F 55.5 °F 30.02 in SSW 1.3 mph 4.6 mph 52 % 0.00 in 357.0 W/m2 BKN
11:42 74.5 °F 55.2 °F 30.02 in SSW 3.6 mph 6.9 mph 51 % 0.00 in 336.0 W/m2 BKN
11:47 74.9 °F 56.1 °F 30.02 in South 1.8 mph 6.9 mph 52 % 0.00 in 301.0 W/m2 BKN
11:52 75.0 °F 55.6 °F 30.03 in South 0.5 mph 6.9 mph 51 % 0.00 in 260.0 W/m2 BKN
11:57 74.8 °F 56.0 °F 30.03 in South 0.9 mph 6.9 mph 52 % 0.00 in 267.0 W/m2 BKN
12:02 74.7 °F 55.9 °F 30.02 in South 0.2 mph 6.9 mph 52 % 0.00 in 309.0 W/m2 OVC
12:07 74.7 °F 55.9 °F 30.02 in Calm   6.9 mph 52 % 0.00 in 348.0 W/m2 OVC
12:13 74.7 °F 56.4 °F 30.02 in Calm   5.8 mph 53 % 0.00 in 429.0 W/m2 OVC
12:17 74.7 °F 56.4 °F 30.02 in Calm   3.5 mph 53 % 0.00 in 381.0 W/m2 OVC
12:23 75.3 °F 56.5 °F 30.02 in Calm   1.2 mph 52 % 0.00 in 322.0 W/m2 OVC
12:28 75.4 °F 57.1 °F 30.02 in SSW 1.5 mph 6.9 mph 53 % 0.00 in 399.0 W/m2 OVC
12:33 76.1 °F 56.7 °F 30.02 in SSW 1.6 mph 6.9 mph 51 % 0.00 in 682.0 W/m2 OVC
12:38 76.8 °F 58.4 °F 30.01 in SE 0.1 mph 6.9 mph 53 % 0.00 in 656.0 W/m2 OVC
12:43 76.9 °F 57.9 °F 30.01 in SSW 0.4 mph 5.8 mph 52 % 0.00 in 596.0 W/m2 OVC
12:48 77.0 °F 56.9 °F 30.01 in Calm   3.5 mph 50 % 0.00 in 506.0 W/m2 OVC
12:53 76.6 °F 56.6 °F 30.01 in South 2.1 mph 11.5 mph 50 % 0.00 in 461.0 W/m2 OVC
12:58 76.6 °F 56.6 °F 30.00 in SSW 0.8 mph 11.5 mph 50 % 0.00 in 439.0 W/m2 OVC
13:03 76.5 °F 56.5 °F 30.00 in South 3.7 mph 9.2 mph 50 % 0.00 in 394.0 W/m2 BKN
13:08 76.3 °F 56.8 °F 30.00 in South 0.8 mph 9.2 mph 51 % 0.00 in 452.0 W/m2 BKN
13:13 76.6 °F 56.6 °F 30.00 in South 2.4 mph 9.2 mph 50 % 0.00 in 408.0 W/m2 BKN
13:18 76.8 °F 56.2 °F 30.00 in SSW 2.5 mph 9.2 mph 49 % 0.00 in 434.0 W/m2 BKN
13:23 76.8 °F 56.8 °F 30.00 in Calm   8.1 mph 50 % 0.00 in 476.0 W/m2 BKN
13:24 76.7 °F 56.7 °F 30.00 in Calm   8.1 mph 50 % 0.00 in 496.0 W/m2 BKN
13:29 76.9 °F 56.3 °F 30.00 in SSW 1.8 mph 5.8 mph 49 % 0.00 in 415.0 W/m2 BKN
13:34 77.1 °F 56.5 °F 30.00 in Calm   4.6 mph 49 % 0.00 in 403.0 W/m2 BKN
13:39 77.0 °F 56.4 °F 30.00 in Calm   4.6 mph 49 % 0.00 in 387.0 W/m2 BKN
13:44 77.4 °F 56.2 °F 30.00 in South 0.5 mph 10.4 mph 48 % 0.00 in 411.0 W/m2 BKN
13:49 77.7 °F 55.9 °F 30.00 in ESE 0.9 mph 11.5 mph 47 % 0.00 in 459.0 W/m2 BKN
13:54 77.6 °F 55.2 °F 30.00 in SSE 4.4 mph 11.5 mph 46 % 0.00 in 476.0 W/m2 BKN
14:00 77.7 °F 54.7 °F 29.99 in SSE 3.0 mph 9.2 mph 45 % 0.00 in 534.0 W/m2 BKN
14:05 77.9 °F 56.1 °F 29.99 in South 1.0 mph 10.0 mph 47 % 0.00 in 527.0 W/m2 SCT
14:10 78.3 °F 55.8 °F 29.99 in South 1.0 mph 7.0 mph 46 % 0.00 in 410.0 W/m2 SCT
14:15 77.8 °F 56.0 °F 29.99 in SSE 0.4 mph 8.1 mph 47 % 0.00 in 422.0 W/m2 SCT
14:20 77.5 °F 55.7 °F 29.99 in Calm   8.1 mph 47 % 0.00 in 413.0 W/m2 SCT
14:25 77.7 °F 55.9 °F 29.99 in SSE 3.5 mph 8.1 mph 47 % 0.00 in 369.0 W/m2 SCT
14:30 77.9 °F 55.5 °F 29.99 in South 1.0 mph 8.1 mph 46 % 0.00 in 334.0 W/m2 SCT
14:35 78.0 °F 55.5 °F 29.99 in South 1.6 mph 9.2 mph 46 % 0.00 in 350.0 W/m2 SCT
14:40 78.1 °F 55.6 °F 29.99 in SSW 3.0 mph 10.4 mph 46 % 0.00 in 330.0 W/m2 SCT
14:45 78.2 °F 55.7 °F 29.99 in SSW 2.5 mph 10.4 mph 46 % 0.00 in 376.0 W/m2 SCT
14:50 78.5 °F 56.6 °F 29.98 in South 4.9 mph 9.2 mph 47 % 0.00 in 504.0 W/m2 SCT
14:55 78.8 °F 56.3 °F 29.98 in SSW 2.0 mph 9.2 mph 46 % 0.00 in 705.0 W/m2 SCT
15:00 78.9 °F 57.0 °F 29.98 in South 0.7 mph 9.2 mph 47 % 0.00 in 524.0 W/m2 SCT
15:05 79.1 °F 56.5 °F 29.97 in SSE 1.2 mph 6.9 mph 46 % 0.00 in 840.0 W/m2 OVC
15:11 78.9 °F 57.0 °F 29.97 in South 0.8 mph 5.8 mph 47 % 0.00 in 754.0 W/m2 OVC
15:16 78.9 °F 57.5 °F 29.97 in ESE 0.9 mph 5.8 mph 48 % 0.00 in 545.0 W/m2 OVC
15:21 79.6 °F 57.6 °F 29.97 in South 2.5 mph 11.5 mph 47 % 0.00 in 738.0 W/m2 OVC
15:26 79.5 °F 56.9 °F 29.96 in Calm   11.5 mph 46 % 0.00 in 673.0 W/m2 OVC
15:31 79.5 °F 56.9 °F 29.96 in NE 0.2 mph 9.2 mph 46 % 0.00 in 404.0 W/m2 OVC
15:36 79.2 °F 57.2 °F 29.96 in Calm   8.1 mph 47 % 0.00 in 343.0 W/m2 OVC
15:41 79.1 °F 57.1 °F 29.97 in SSW 3.5 mph 8.1 mph 47 % 0.00 in 353.0 W/m2 OVC
15:46 78.9 °F 57.5 °F 29.96 in Calm   8.1 mph 48 % 0.00 in 415.0 W/m2 OVC
15:51 79.5 °F 57.5 °F 29.97 in SSW 2.9 mph 8.1 mph 47 % 0.00 in 341.0 W/m2 OVC
15:56 79.4 °F 58.0 °F 29.96 in Calm   9.2 mph 48 % 0.00 in 332.0 W/m2 OVC
16:01 79.6 °F 58.2 °F 29.96 in South 0.8 mph 9.2 mph 48 % 0.00 in 330.0 W/m2 FEW
16:06 79.3 °F 58.5 °F 29.96 in Calm   4.6 mph 49 % 0.00 in 339.0 W/m2 FEW
16:07 79.3 °F 58.5 °F 29.96 in South 0.3 mph 4.6 mph 49 % 0.00 in 339.0 W/m2 FEW
16:12 79.2 °F 58.4 °F 29.96 in Calm   5.8 mph 49 % 0.00 in 313.0 W/m2 FEW
16:17 79.1 °F 58.9 °F 29.96 in Calm   5.8 mph 50 % 0.00 in 318.0 W/m2 FEW
16:22 79.2 °F 58.4 °F 29.96 in SE 0.9 mph 3.5 mph 49 % 0.00 in 316.0 W/m2 FEW
16:27 79.1 °F 58.9 °F 29.96 in Calm   6.9 mph 50 % 0.00 in 301.0 W/m2 FEW
16:32 79.3 °F 58.5 °F 29.96 in South 0.3 mph 6.9 mph 49 % 0.00 in 279.0 W/m2 FEW
16:37 79.1 °F 57.7 °F 29.95 in South 1.0 mph 5.8 mph 48 % 0.00 in 325.0 W/m2 FEW
16:42 79.3 °F 58.5 °F 29.95 in South 0.1 mph 5.8 mph 49 % 0.00 in 309.0 W/m2 FEW
16:47 79.2 °F 58.4 °F 29.95 in South 0.8 mph 5.8 mph 49 % 0.00 in 306.0 W/m2 FEW
16:52 79.2 °F 57.8 °F 29.95 in South 0.6 mph 6.9 mph 48 % 0.00 in 271.0 W/m2 FEW
16:57 79.0 °F 57.6 °F 29.94 in SE 0.4 mph 6.9 mph 48 % 0.00 in 313.0 W/m2 FEW
17:02 79.2 °F 57.8 °F 29.94 in SSW 0.5 mph 6.9 mph 48 % 0.00 in 338.0 W/m2 OVC
17:07 79.3 °F 57.9 °F 29.94 in SE 0.3 mph 6.9 mph 48 % 0.00 in 302.0 W/m2 OVC
17:12 79.2 °F 58.4 °F 29.93 in SSE 0.2 mph 3.5 mph 49 % 0.00 in 357.0 W/m2 OVC
17:15 79.3 °F 58.5 °F 29.93 in SE 0.2 mph 4.6 mph 49 % 0.00 in 304.0 W/m2 OVC
17:20 79.3 °F 58.5 °F 29.93 in Calm   8.1 mph 49 % 0.00 in 436.0 W/m2 OVC
17:25 79.2 °F 59.0 °F 29.93 in South 0.2 mph 8.1 mph 50 % 0.00 in 320.0 W/m2 OVC
17:30 79.1 °F 58.9 °F 29.93 in South 4.3 mph 9.2 mph 50 % 0.00 in 171.0 W/m2 OVC
17:35 79.1 °F 57.7 °F 29.93 in SSW 0.3 mph 16.1 mph 48 % 0.00 in 223.0 W/m2 OVC
17:40 79.2 °F 57.2 °F 29.93 in South 2.2 mph 16.1 mph 47 % 0.00 in 179.0 W/m2 OVC
17:45 79.2 °F 57.2 °F 29.93 in SE 1.0 mph 10.4 mph 47 % 0.00 in 195.0 W/m2 OVC
17:50 79.1 °F 57.1 °F 29.93 in South 1.0 mph 12.7 mph 47 % 0.00 in 174.0 W/m2 OVC
17:55 78.9 °F 56.4 °F 29.93 in South 1.3 mph 12.7 mph 46 % 0.00 in 183.0 W/m2 OVC
18:00 78.9 °F 56.4 °F 29.93 in SSW 1.5 mph 12.7 mph 46 % 0.00 in 162.0 W/m2 OVC
18:05 78.8 °F 56.3 °F 29.93 in SSW 2.8 mph 12.7 mph 46 % 0.00 in 167.0 W/m2 OVC
18:10 79.1 °F 55.9 °F 29.93 in SSW 1.0 mph 8.1 mph 45 % 0.00 in 174.0 W/m2 OVC
18:15 78.5 °F 56.0 °F 29.93 in Calm   8.1 mph 46 % 0.00 in 172.0 W/m2 OVC
18:20 78.5 °F 56.0 °F 29.93 in Calm   8.1 mph 46 % 0.00 in 151.0 W/m2 OVC
18:25 78.5 °F 56.0 °F 29.93 in South 2.2 mph 10.4 mph 46 % 0.00 in 186.0 W/m2 OVC
18:30 79.0 °F 55.8 °F 29.94 in SSW 0.8 mph 10.4 mph 45 % 0.00 in 207.0 W/m2 OVC
18:35 78.9 °F 55.8 °F 29.93 in SSE 0.4 mph 6.9 mph 45 % 0.00 in 250.0 W/m2 OVC
18:40 78.8 °F 55.7 °F 29.93 in Calm   4.6 mph 45 % 0.00 in 211.0 W/m2 OVC
18:45 78.7 °F 55.0 °F 29.93 in South 0.9 mph 4.6 mph 44 % 0.00 in 153.0 W/m2 OVC
18:50 78.3 °F 54.6 °F 29.93 in ESE 0.1 mph 4.6 mph 44 % 0.00 in 113.0 W/m2 OVC
18:55 78.0 °F 54.9 °F 29.93 in Calm   4.6 mph 45 % 0.00 in 111.0 W/m2 OVC
19:00 78.1 °F 55.0 °F 29.93 in SSW 0.1 mph 5.8 mph 45 % 0.00 in 105.0 W/m2 OVC
19:05 77.7 °F 54.0 °F 29.94 in SSE 1.8 mph 5.8 mph 44 % 0.00 in 83.0 W/m2 CLR
19:10 77.6 °F 54.0 °F 29.94 in SSW 0.2 mph 8.1 mph 44 % 0.00 in 69.0 W/m2 CLR
19:15 77.4 °F 53.8 °F 29.94 in South 0.2 mph 8.1 mph 44 % 0.00 in 104.0 W/m2 CLR
19:20 77.4 °F 53.1 °F 29.93 in Calm   6.9 mph 43 % 0.00 in 93.0 W/m2 CLR
19:25 77.2 °F 53.0 °F 29.93 in South 0.1 mph 6.9 mph 43 % 0.00 in 79.0 W/m2 CLR
19:30 77.1 °F 54.1 °F 29.93 in South 1.1 mph 8.1 mph 45 % 0.00 in 42.0 W/m2 CLR
19:35 76.7 °F 53.1 °F 29.94 in Calm   8.1 mph 44 % 0.00 in 23.0 W/m2 CLR
19:40 76.4 °F 53.5 °F 29.94 in Calm   8.1 mph 45 % 0.00 in 21.0 W/m2 CLR
19:46 76.1 °F 53.2 °F 29.93 in Calm   6.9 mph 45 % 0.00 in 25.0 W/m2 CLR
19:51 75.8 °F 52.9 °F 29.94 in Calm   4.6 mph 45 % 0.00 in 25.0 W/m2 CLR
19:52 75.8 °F 52.9 °F 29.94 in Calm   4.6 mph 45 % 0.00 in 21.0 W/m2 CLR
19:57 75.5 °F 52.1 °F 29.94 in SSW 0.2 mph 3.5 mph 44 % 0.00 in 16.0 W/m2 CLR
20:02 75.4 °F 52.6 °F 29.95 in Calm   3.5 mph 45 % 0.00 in 12.0 W/m2 CLR
20:07 75.2 °F 51.8 °F 29.95 in Calm   4.6 mph 44 % 0.00 in 11.0 W/m2 CLR
20:12 75.0 °F 51.6 °F 29.96 in Calm   5.8 mph 44 % 0.00 in 11.0 W/m2 CLR
20:17 74.7 °F 51.3 °F 29.96 in South 0.2 mph 5.8 mph 44 % 0.00 in 9.0 W/m2 CLR
20:22 74.4 °F 51.1 °F 29.96 in Calm   2.3 mph 44 % 0.00 in 7.0 W/m2 CLR
20:27 74.0 °F 51.9 °F 29.96 in Calm   2.3 mph 46 % 0.00 in 5.0 W/m2 CLR
20:32 73.5 °F 51.4 °F 29.96 in Calm   1.2 mph 46 % 0.00 in 0.0 W/m2 CLR
20:37 73.2 °F 51.2 °F 29.96 in Calm   2.3 mph 46 % 0.00 in 0.0 W/m2 CLR
20:42 72.9 °F 50.9 °F 29.96 in Calm   2.3 mph 46 % 0.00 in 0.0 W/m2 CLR
20:47 72.5 °F 49.9 °F 29.97 in Calm   2.3 mph 45 % 0.00 in 0.0 W/m2 CLR
20:52 72.3 °F 49.8 °F 29.96 in Calm     45 % 0.00 in 0.0 W/m2 CLR
20:53 72.3 °F 49.8 °F 29.96 in Calm     45 % 0.00 in 0.0 W/m2 CLR
20:58 72.0 °F 49.5 °F 29.97 in Calm   1.2 mph 45 % 0.00 in 0.0 W/m2 CLR
21:03 71.8 °F 49.3 °F 29.97 in Calm   1.2 mph 45 % 0.00 in 0.0 W/m2 CLR
21:08 71.6 °F 48.5 °F 29.97 in SSW 0.6 mph 3.5 mph 44 % 0.00 in 0.0 W/m2 CLR
21:13 71.5 °F 47.8 °F 29.98 in Calm   3.5 mph 43 % 0.00 in 0.0 W/m2 CLR
21:18 71.5 °F 47.8 °F 29.98 in Calm   3.5 mph 43 % 0.00 in 0.0 W/m2 CLR
21:23 71.2 °F 46.9 °F 29.98 in Calm   3.5 mph 42 % 0.00 in 0.0 W/m2 CLR
21:28 71.0 °F 46.1 °F 29.98 in Calm   3.5 mph 41 % 0.00 in 0.0 W/m2 CLR
21:33 70.8 °F 45.3 °F 29.98 in East 0.4 mph 3.5 mph 40 % 0.00 in 0.0 W/m2 CLR
21:38 70.8 °F 44.6 °F 29.98 in South 0.1 mph 3.5 mph 39 % 0.00 in 0.0 W/m2 CLR
21:43 70.7 °F 43.8 °F 29.98 in Calm   3.5 mph 38 % 0.00 in 0.0 W/m2 CLR
21:48 70.5 °F 43.7 °F 29.99 in Calm   1.2 mph 38 % 0.00 in 0.0 W/m2 CLR
21:53 70.4 °F 43.6 °F 29.99 in Calm   1.2 mph 38 % 0.00 in 0.0 W/m2 CLR
21:58 70.2 °F 43.4 °F 29.99 in Calm   1.2 mph 38 % 0.00 in 0.0 W/m2 CLR
22:03 70.1 °F 43.3 °F 29.99 in Calm   3.5 mph 38 % 0.00 in 0.0 W/m2 CLR
22:08 70.0 °F 43.2 °F 29.99 in Calm   3.5 mph 38 % 0.00 in 0.0 W/m2 CLR
22:13 69.8 °F 43.7 °F 29.99 in SSE 0.3 mph 3.5 mph 39 % 0.00 in 0.0 W/m2 CLR
22:18 69.7 °F 43.6 °F 29.99 in Calm   3.5 mph 39 % 0.00 in 0.0 W/m2 CLR
22:23 69.4 °F 44.0 °F 30.00 in Calm   3.5 mph 40 % 0.00 in 0.0 W/m2 CLR
22:28 69.2 °F 44.5 °F 30.00 in Calm     41 % 0.00 in 0.0 W/m2 CLR
22:33 69.0 °F 44.9 °F 30.00 in Calm   1.2 mph 42 % 0.00 in 0.0 W/m2 CLR
22:38 69.0 °F 44.9 °F 30.00 in Calm   1.2 mph 42 % 0.00 in 0.0 W/m2 CLR
22:43 68.8 °F 45.4 °F 30.00 in Calm   1.2 mph 43 % 0.00 in 0.0 W/m2 CLR
22:48 68.7 °F 45.3 °F 30.00 in Calm   2.3 mph 43 % 0.00 in 0.0 W/m2 CLR
22:53 68.5 °F 45.7 °F 30.00 in Calm   2.3 mph 44 % 0.00 in 0.0 W/m2 CLR
22:58 68.4 °F 45.0 °F 30.00 in Calm   1.2 mph 43 % 0.00 in 0.0 W/m2 CLR
23:03 68.4 °F 45.0 °F 30.00 in Calm     43 % 0.00 in 0.0 W/m2 CLR
23:08 68.4 °F 45.0 °F 30.00 in Calm   1.2 mph 43 % 0.00 in 0.0 W/m2 CLR
23:13 68.4 °F 45.0 °F 30.00 in Calm   1.2 mph 43 % 0.00 in 0.0 W/m2 CLR
23:18 68.5 °F 45.1 °F 30.00 in Calm   1.2 mph 43 % 0.00 in 0.0 W/m2 CLR
23:23 68.4 °F 45.6 °F 30.00 in Calm   1.2 mph 44 % 0.00 in 0.0 W/m2 CLR
23:28 68.3 °F 46.1 °F 30.00 in Calm   1.2 mph 45 % 0.00 in 0.0 W/m2 CLR
23:33 68.2 °F 46.0 °F 30.00 in Calm     45 % 0.00 in 0.0 W/m2 CLR
23:38 68.2 °F 46.6 °F 30.00 in Calm     46 % 0.00 in 0.0 W/m2 CLR
23:43 68.1 °F 45.9 °F 30.00 in Calm     45 % 0.00 in 0.0 W/m2 CLR
23:49 67.9 °F 46.3 °F 30.00 in Calm     46 % 0.00 in 0.0 W/m2 CLR
23:54 67.7 °F 46.7 °F 30.00 in Calm     47 % 0.00 in 0.0 W/m2 OVC
23:59 67.5 °F 47.1 °F 30.00 in Calm     48 % 0.00 in 0.0 W/m2 OVC
Air Products Campus Weather
Compliments of Weather Underground - 3.5 mb